Location: Arroyo de Valdeoliva
(40.1604°N, 4.9878°W)
Time: 16:59:58
(UTC+00:00)

Cosmos 2082 - Pass Details

Date: 11 December 2025
Orbit: 831 x 855 km, 71.0° (Epoch: 15 January)

Event Time Altitude Azimuth Distance (km) Brightness Sun altitude
Rises 19:24:46 0° 336° (NNW) 3,425 7.1 -27.9°
Reaches altitude 10° 19:27:13 10° 335° (NNW) 2,488 6.3 -28.4°
Enters shadow 19:32:20 72° 320° (NW) 900 3.8 -29.3°
